Temp
6 6 6 6 6 6 6 6 6 5 5 6 6 5 5 5 5 5 5 5 5 4 4 4 5 5 5 5 5 5 6 6 7 7 8 9 10 11 12 12 13 13 12 12 12 12 12 12 12 12 12 12 12 12 12 12 12 12 12 12 13 13 13 14 14 15 15 15 14 14 14 14 14 14 14 14 14 14 14 13 13 13 13 13 13 13
6 6 6 6 6 6 6 6 6 5 5 5 5 5 5 5 5 5 5 5 5 4 4 4 5 5 5 5 5 5 6 6 6 7 7 8 9 10 11 12 13 13 13 12 12 12 12 12 12 12 12 12 12 12 12 12 12 12 12 12 13 13 13 13 14 14 15 14 14 14 14 14 14 14 14 14 14 13 13 13 13 13 13 13 13 12
6 6 6 6 6 5 5 6 6 5 5 5 5 5 5 5 5 5 5 5 5 5 4 4 4 5 5 5 5 5 5 6 6 7 7 8 9 10 11 12 13 13 13 13 12 12 12 12 12 12 12 12 12 12 12 12 12 12 12 13 13 13 13 13 13 14 14 14 14 14 14 14 14 14 14 13 13 12 12 13 13 13 13 13 12 12
6 6 5 5 5 5 5 5 5 5 5 5 5 5 5 5 5 5 5 5 5 5 5 4 4 4 5 5 5 5 5 6 6 6 7 7 8 9 10 11 12 13 13 13 13 12 12 12 12 12 12 12 12 12 12 12 12 13 13 13 13 13 13 13 14 14 14 14 14 14 14 13 13 13 13 12 12 12 12 12 12 12 12 12 12 12
5 5 5 5 5 5 5 5 5 5 5 5 5 5 5 5 5 5 5 5 5 5 5 5 4 4 4 5 5 5 5 5 6 6 6 7 7 8 9 10 11 12 13 13 13 13 12 12 12 12 12 12 12 12 12 12 13 13 14 14 14 14 14 14 14 14 14 14 13 13 13 13 13 12 12 12 12 12 12 12 12 12 12 12 12 12
5 5 5 5 5 5 6 5 5 5 5 5 5 5 5 5 5 5 5 5 5 5 5 5 5 4 4 5 5 5 5 5 6 6 6 7 7 7 8 8 9 10 11 12 13 13 13 13 12 12 12 12 12 12 12 13 13 14 14 14 14 14 14 14 14 13 13 13 13 13 12 12 12 11 11 11 11 12 12 12 12 12 12 11 11 11
5 5 5 5 5 5 6 5 5 5 5 5 5 5 5 5 5 5 5 5 5 5 5 5 5 5 5 5 5 5 5 5 6 6 6 6 7 7 7 7 8 9 9 10 11 12 12 12 12 12 12 12 12 12 13 13 13 13 13 13 13 13 13 13 13 13 13 12 12 12 12 11 11 11 11 11 11 11 11 11 11 11 11 11 11 11
5 5 5 5 5 5 6 6 5 5 5 5 5 5 5 5 5 5 5 5 5 5 5 5 5 5 5 5 5 5 5 5 5 6 6 6 7 7 7 7 7 8 8 9 9 10 11 11 11 12 12 12 12 12 13 13 12 12 12 12 11 12 12 12 12 12 12 12 11 11 11 11 11 11 11 11 11 11 11 11 11 11 11 11 11 11
5 5 5 5 5 5 5 6 5 5 5 5 5 4 4 4 5 6 6 5 5 5 4 4 4 5 5 5 5 5 5 5 5 5 5 6 6 7 7 7 7 7 7 8 8 9 9 9 10 10 11 11 12 12 12 12 12 12 11 11 11 11 11 11 11 11 11 11 11 11 11 11 11 11 11 11 11 11 11 11 11 11 11 12 12 12
5 5 5 5 5 5 5 5 5 5 5 5 5 4 4 4 5 5 6 5 5 5 4 4 4 4 5 5 5 5 5 5 5 5 5 6 6 7 7 7 7 7 7 7 8 8 8 8 9 9 10 10 10 11 11 11 12 12 11 11 10 10 10 11 11 11 11 11 11 11 11 11 11 11 11 11 11 11 11 11 12 12 12 13 13 13
5 5 5 5 5 5 5 5 5 5 5 5 5 5 5 4 4 5 5 5 5 5 5 4 4 3 4 4 4 4 5 5 5 5 5 5 6 6 7 7 7 7 7 8 8 8 8 8 8 9 9 9 10 10 10 11 11 12 11 11 11 10 10 11 11 11 11 11 11 11 11 11 11 11 11 11 11 12 12 12 12 12 12 12 12 11
5 5 5 5 5 5 5 5 5 5 5 5 5 5 5 4 4 4 5 5 5 5 5 4 4 3 3 3 4 4 4 4 4 4 5 5 5 6 6 7 7 7 7 8 8 8 8 8 8 8 9 9 9 10 10 11 11 12 12 11 11 11 11 11 11 11 11 11 11 11 11 11 11 11 11 11 12 12 12 12 12 12 12 11 11 10
5 5 5 5 5 5 5 5 5 5 5 5 4 4 4 4 4 4 5 5 5 5 5 5 4 4 3 3 3 3 4 4 4 4 4 4 4 5 6 6 6 6 7 7 7 7 8 8 8 9 9 9 9 9 10 11 11 12 11 11 11 11 11 11 11 11 11 11 11 11 11 11 11 11 11 11 11 11 11 11 11 11 11 10 10 10
5 5 5 5 5 5 5 5 5 5 5 4 4 4 4 4 4 4 5 5 5 5 5 5 5 4 4 3 3 3 3 4 4 4 4 4 4 4 5 5 5 6 6 6 6 6 7 7 8 8 9 9 9 9 9 10 11 11 11 11 11 11 11 11 11 11 11 11 11 11 11 11 11 11 11 11 11 11 11 11 10 10 10 10 9 9
5 5 5 5 5 5 4 4 5 5 4 4 4 4 4 4 4 4 4 4 5 5 5 6 6 5 4 3 3 3 3 3 4 4 4 4 3 4 4 5 5 5 5 6 6 6 6 6 7 7 8 8 8 9 9 9 10 11 11 11 11 11 11 11 11 11 11 11 11 11 11 11 11 11 11 11 11 11 10 10 10 10 9 9 9 9
4 4 4 4 5 4 4 4 4 4 4 4 4 4 4 4 4 4 4 4 4 5 5 5 6 6 5 4 3 3 3 3 3 3 3 3 3 3 4 4 4 5 5 5 5 5 6 6 6 6 7 8 8 9 9 9 9 10 10 11 11 11 11 11 11 11 11 11 11 11 11 11 11 11 11 10 10 10 10 10 10 9 9 9 9 9
4 4 4 4 4 4 4 4 4 4 4 4 4 4 4 3 3 3 3 4 4 4 4 4 4 5 5 5 4 3 3 3 3 3 3 3 3 3 3 3 4 4 4 4 5 5 5 5 6 6 6 7 8 8 8 9 9 9 9 10 10 10 11 11 11 11 11 11 10 10 10 10 10 10 10 9 9 9 9 9 9 9 9 8 8 8
4 4 4 4 4 4 4 4 4 4 4 4 4 4 4 3 3 3 3 3 3 3 3 3 3 3 3 3 3 3 2 3 3 3 3 3 3 3 3 3 3 3 4 4 4 5 5 5 5 6 6 7 7 8 8 8 8 8 8 9 9 9 10 10 10 10 10 10 9 9 9 9 9 9 9 9 8 8 8 8 8 8 8 8 8 8
4 4 4 4 4 4 4 4 4 4 4 4 4 4 4 4 3 3 3 3 3 3 3 3 3 2 2 2 2 3 2 3 3 3 3 2 2 2 3 3 3 3 3 3 4 4 5 5 5 5 6 7 7 7 7 7 7 7 8 8 8 8 8 9 9 9 9 9 9 9 9 9 8 8 8 8 8 8 8 8 8 8 8 8 8 8
4 4 4 4 4 4 4 4 4 4 4 4 4 4 4 4 3 3 3 3 3 3 3 3 2 2 2 2 3 3 3 3 3 3 3 2 2 2 2 2 3 3 3 3 3 4 4 4 5 5 6 6 7 7 7 7 7 7 7 7 7 7 7 7 8 8 8 8 8 8 8 8 8 8 8 8 8 8 8 8 8 8 7 7 7 7
3 4 4 4 4 4 4 4 4 4 4 4 4 4 4 4 3 3 3 3 3 3 3 3 2 2 2 2 2 3 3 3 3 3 3 2 2 2 2 2 2 2 2 2 3 3 4 4 4 5 5 5 6 6 7 7 7 7 7 7 7 7 7 7 7 7 7 7 7 7 7 7 7 7 7 7 7 7 7 7 7 7 6 6 6 6
3 3 4 4 4 4 4 4 4 4 4 4 4 4 4 4 4 3 3 3 3 3 3 3 2 3 3 3 3 3 3 3 3 3 3 2 2 1 2 2 2 2 2 2 2 3 3 4 4 4 4 5 5 5 6 6 6 7 7 7 7 7 7 7 7 7 7 7 7 7 7 7 7 7 7 7 7 7 7 6 6 6 6 6 6 6
3 3 4 4 4 4 4 5 5 5 5 4 4 4 4 4 4 4 3 3 3 3 3 3 3 3 3 3 3 3 3 3 3 3 2 2 2 1 1 2 2 2 2 2 2 3 3 3 3 4 4 4 5 5 5 5 5 6 6 6 6 6 6 6 6 6 6 6 6 6 6 6 6 6 6 6 6 6 6 6 6 6 6 6 6 6
3 3 3 4 4 4 4 4 5 5 5 4 4 4 4 4 4 4 4 4 4 4 4 4 4 4 4 4 3 3 3 3 3 3 2 2 1 1 1 2 2 2 2 2 2 3 3 3 3 3 4 4 4 4 5 5 5 5 5 5 6 6 6 6 6 6 6 6 6 6 6 6 6 6 6 6 6 6 6 6 6 6 6 6 6 6
2 3 3 3 3 3 4 4 4 5 5 5 4 4 4 4 4 4 4 4 4 4 4 4 4 4 4 3 3 3 3 3 3 3 3 2 1 1 1 1 2 2 1 2 2 3 3 3 3 3 3 4 4 4 4 4 5 5 5 5 5 6 6 6 6 6 6 6 6 6 6 6 6 6 6 6 6 6 6 6 6 6 6 6 6 6
2 2 2 3 3 3 3 4 4 4 5 5 5 5 5 5 5 5 5 5 5 5 5 4 4 4 4 3 3 3 3 3 3 3 2 2 2 1 1 2 2 2 2 2 2 3 3 3 3 3 3 3 3 3 4 4 4 4 5 5 5 5 5 5 6 6 6 6 6 6 6 6 6 6 6 6 6 6 6 6 6 5 5 6 6 6
2 2 2 2 3 3 3 3 3 4 4 5 5 5 5 5 5 5 5 5 5 5 5 5 4 4 4 3 3 3 3 3 3 3 3 2 2 2 2 2 2 2 2 2 2 2 2 2 3 3 3 3 3 3 3 4 4 4 4 4 4 5 5 5 5 5 6 6 6 6 6 6 6 6 6 6 6 6 6 5 5 5 5 5 5 6
2 2 2 2 2 3 3 3 3 4 4 5 5 5 5 5 5 4 4 4 4 5 5 5 4 4 4 3 3 3 3 4 4 3 3 3 3 2 2 2 3 3 3 3 3 3 3 2 3 3 3 3 4 4 4 4 4 4 4 4 4 4 4 4 5 5 5 5 5 5 5 5 5 6 6 5 5 5 5 5 5 5 5 5 5 5
2 2 2 2 2 2 2 3 3 3 4 5 5 6 6 5 4 3 3 3 4 4 4 4 4 4 4 3 3 3 3 3 3 4 4 4 3 3 2 3 3 3 3 4 4 4 3 2 2 3 3 3 4 4 4 4 4 4 4 4 4 4 4 4 4 4 4 5 5 5 5 5 5 5 5 5 5 5 5 5 5 5 5 5 5 5
2 2 2 2 2 2 3 3 3 3 4 4 5 5 5 5 4 3 3 3 3 3 3 3 3 4 4 4 3 3 3 3 3 3 4 4 3 3 3 3 4 3 3 4 4 3 3 2 3 3 3 4 4 4 4 5 5 5 5 5 5 5 5 5 5 4 4 4 4 5 5 5 5 5 5 5 5 5 5 5 5 5 5 5 5 5
1 2 2 2 3 3 3 3 3 3 4 4 4 4 4 4 4 3 3 3 3 3 2 2 3 3 3 3 2 2 2 2 3 3 3 3 3 2 3 3 3 3 3 3 2 2 3 3 3 3 3 4 4 4 4 4 5 5 5 5 5 5 5 5 5 5 5 5 4 4 4 4 4 5 5 5 5 5 5 5 5 5 5 5 5 5
1 1 1 2 3 3 3 3 3 4 4 4 4 4 4 4 4 3 3 3 2 2 2 2 2 2 2 2 2 1 1 2 2 2 3 3 3 2 2 2 2 3 3 3 3 3 2 2 2 2 3 3 3 4 4 4 4 4 5 5 4 4 4 5 5 5 5 5 5 5 4 4 4 4 4 4 4 4 4 5 5 5 5 5 5 5
1 1 1 2 2 2 3 3 3 3 4 4 4 4 4 4 4 4 3 3 2 2 2 2 2 2 2 1 1 1 1 1 2 2 3 3 3 3 3 3 3 3 3 4 4 4 2 2 2 2 2 2 3 3 3 4 4 4 4 4 4 4 4 4 5 5 5 5 5 5 4 4 4 4 4 4 4 4 4 4 4 5 5 5 5 5
1 1 1 1 1 1 2 2 2 3 3 3 4 4 4 4 4 4 3 3 3 2 2 2 1 1 2 1 1 1 1 2 2 3 4 4 4 4 3 3 4 4 4 4 4 3 3 3 2 2 2 2 2 3 3 3 3 4 4 4 4 4 4 4 4 4 4 5 5 5 5 4 4 4 4 4 4 4 4 4 4 4 4 5 5 5
1 1 1 1 1 1 1 1 1 2 2 2 3 3 3 3 3 3 3 3 3 3 2 2 2 1 1 1 1 1 1 2 3 4 5 5 4 4 4 4 5 5 5 4 3 3 2 2 2 2 2 2 2 2 2 3 3 3 4 4 4 4 4 4 4 4 4 4 4 4 4 4 4 4 4 4 4 4 4 4 4 4 4 4 4 4
1 1 0 0 1 1 1 1 1 1 1 2 2 2 3 3 3 3 3 2 2 2 2 2 2 2 1 1 1 1 1 2 3 4 5 5 5 5 5 5 5 5 5 4 3 3 2 2 2 2 2 2 2 2 2 3 3 4 4 4 3 4 4 4 4 4 4 4 4 4 4 4 4 4 4 4 4 4 4 4 4 4 4 4 4 4
1 0 0 0 0 0 0 1 1 1 1 1 1 2 2 2 2 2 2 2 2 2 2 2 1 1 1 1 1 1 2 2 3 4 5 5 6 6 5 5 5 5 5 4 3 3 3 3 2 2 2 2 2 2 2 3 3 3 3 3 3 3 3 4 4 4 4 4 3 3 3 3 3 3 3 3 3 4 4 4 4 4 4 4 4 4
0 -0 -0 -0 -0 0 0 0 1 1 1 1 1 1 2 2 2 2 2 2 2 2 2 2 1 1 1 1 1 1 1 2 2 3 4 5 5 5 5 5 5 5 5 5 4 4 4 3 3 2 1 1 1 1 2 2 2 2 2 3 3 3 3 3 4 4 4 3 3 3 3 3 3 3 3 3 3 3 3 3 3 4 4 4 4 4
-0 -0 -0 -0 0 0 0 0 0 1 1 1 1 1 1 1 1 1 1 2 2 2 2 2 1 1 1 1 1 1 1 2 2 3 4 4 5 5 5 5 5 5 5 5 5 5 4 4 3 2 2 2 1 1 2 2 2 2 2 3 3 2 2 3 3 3 3 3 3 3 3 3 3 3 3 3 3 3 3 3 3 3 4 4 4 4
-0 -0 -0 -0 -0 0 0 0 0 0 0 1 1 1 1 1 1 1 1 1 2 2 2 2 2 1 1 1 1 1 1 1 2 2 3 3 4 4 4 4 4 4 4 4 5 5 4 3 2 2 2 2 2 2 2 2 2 2 3 2 2 1 1 2 2 3 3 3 3 3 3 3 3 3 3 3 3 3 3 3 3 3 4 4 4 4
-1 -0 -0 -0 -0 -0 -0 0 0 0 0 0 0 0 0 0 1 1 1 1 2 2 2 2 2 2 2 2 2 2 1 1 1 2 2 2 3 3 3 3 3 4 4 4 4 4 4 3 2 2 2 2 2 2 2 2 2 2 2 1 1 1 1 1 2 2 2 3 3 2 2 3 3 3 2 2 2 2 2 3 3 3 3 3 4 4
-0 -0 -0 -0 -0 -0 0 -0 -0 -0 0 0 1 1 1 1 1 1 1 1 2 2 2 3 3 2 2 2 2 2 1 1 1 1 2 2 2 2 2 2 2 3 3 3 3 3 3 3 2 2 2 2 2 2 1 1 2 2 2 1 1 1 1 1 1 1 2 2 2 2 2 2 2 2 2 2 2 2 2 2 2 3 3 3 3 3
-1 -1 -0 -0 -0 -0 -0 -0 0 0 0 0 0 0 1 1 1 1 1 1 2 2 3 3 3 2 1 0 0 1 1 1 1 1 1 1 2 2 2 2 2 2 2 2 1 2 2 2 2 2 2 2 2 2 1 1 1 1 1 1 1 1 1 1 1 1 1 1 2 2 2 2 2 2 2 2 2 2 2 2 2 2 2 3 3 3
-1 -1 -1 -1 -0 -0 -0 -0 0 0 0 0 0 1 1 1 1 1 1 1 1 2 2 2 2 2 0 -0 -1 -1 0 0 1 1 1 1 1 1 1 1 2 2 2 1 1 1 1 1 1 2 2 2 2 2 1 1 1 1 1 1 1 1 0 0 0 1 1 1 1 2 2 2 2 3 3 3 3 3 3 3 2 2 2 2 3 3
-1 -1 -1 -1 -1 -0 -0 -0 -0 -0 0 0 0 1 1 1 1 1 1 1 1 2 2 2 2 1 -0 -1 -1 -1 -0 -0 0 0 1 1 1 1 1 1 1 1 1 1 1 1 1 1 1 1 2 2 2 2 1 1 0 0 0 0 1 0 0 0 0 1 1 1 1 2 2 2 3 3 3 3 2 2 2 2 2 2 2 2 2 2
-1 -1 -1 -1 -1 -0 -0 -0 -0 -0 0 0 0 0 0 0 0 0 0 1 1 1 2 3 2 1 -1 -1 -1 -1 -1 -1 -0 -0 -0 0 1 1 1 1 1 1 0 -0 0 0 1 1 1 1 2 2 1 1 1 1 0 0 0 0 0 0 0 0 1 1 1 1 1 2 2 2 3 3 2 2 2 2 2 2 2 2 2 2 2 2
-1 -1 -1 -1 -1 -1 -1 -0 -0 -0 -0 -0 -0 -0 -0 -0 -0 -0 -0 -0 0 1 1 2 1 0 -1 -1 -1 -1 -1 -1 -1 -1 -1 -1 -0 0 0 0 1 1 1 0 -0 -0 -0 0 1 1 2 1 0 -0 0 0 0 0 0 0 0 0 0 0 1 1 1 1 2 2 2 2 2 2 2 2 2 1 2 2 2 2 1 1 1 1
-1 -1 -1 -1 -1 -1 -1 -0 -0 -0 -1 -1 -1 -1 -1 -1 -1 -0 -0 -0 0 0 0 1 0 -0 -1 -1 -1 -1 -1 -1 -1 -1 -1 -1 -1 -0 -0 0 0 1 1 1 1 0 0 0 1 1 1 1 0 -0 -0 0 0 0 0 0 0 0 0 0 1 1 1 1 2 2 2 2 2 1 1 1 1 1 1 1 1 1 1 1 1 1
-1 -1 -1 -1 -1 -1 -1 -1 -1 -1 -1 -1 -1 -1 -1 -1 -1 -1 -1 -0 -0 0 0 -0 -0 -1 -1 -1 -1 -1 -1 -1 -1 -1 -1 -1 -1 -1 -0 -0 0 1 1 1 1 1 1 1 0 0 0 0 -0 -0 -0 -0 0 0 0 0 0 0 0 0 0 1 1 1 2 2 2 2 2 2 1 1 1 1 0 0 0 0 0 1 1 1
-0 -0 -1 -1 -1 -1 -1 -1 -1 -1 -1 -1 -1 -1 -1 -1 -1 -1 -1 -1 -0 -0 -1 -1 -1 -1 -1 -1 -1 -1 -1 -0 -1 -1 -1 -1 -1 -1 -0 -0 0 1 1 1 1 1 1 0 0 -0 -0 -1 -0 -0 -0 0 0 0 0 0 0 0 -0 0 0 1 1 1 1 2 2 2 2 2 2 1 1 1 1 0 0 0 0 0 0 0
-1 -1 -1 -1 -1 -1 -1 -1 -1 -1 -1 -1 -1 -1 -1 -1 -1 -1 -1 -1 -1 -1 -1 -1 -1 -1 -1 -1 -1 -1 -1 -1 -1 -1 -1 -1 -1 -1 -0 0 1 1 1 2 2 2 1 0 -1 -1 -1 -1 -1 -1 -1 0 0 0 0 -0 0 0 0 0 1 1 1 1 1 2 2 2 2 2 1 1 1 1 1 0 0 0 0 0 0 0
Height
739 738 737 735 734 733 732 730 729 727 726 724 723 721 719 718 717 715 713 711 708 706 703 701 698 695 693 691 688 686 683 680 677 673 669 665 662 659 657 656 655 656 656 657 657 658 658 659 660 661 662 662 663 663 663 663 663 664 664 665 665 666 667 668 669 670 671 672 674 676 679 681 684 687 690 693 696 698 700 702 704 707 710 713 717 720
739 738 737 736 734 733 732 731 730 728 727 725 724 722 721 719 718 716 713 711 709 707 704 702 699 697 694 692 690 687 684 682 679 676 672 668 664 661 658 657 656 656 657 657 658 658 659 660 661 662 663 663 664 663 663 663 663 663 664 664 665 666 668 668 669 670 670 673 676 678 682 684 687 689 692 695 697 698 700 703 705 708 711 714 718 721
739 738 737 736 735 734 733 732 730 729 728 727 725 724 722 720 719 717 715 713 710 708 706 703 701 698 695 693 691 689 686 683 681 678 675 671 667 663 660 658 657 657 658 658 659 660 660 661 662 663 664 664 665 664 664 664 663 663 663 664 665 667 668 669 669 670 672 675 678 681 683 686 688 690 693 695 697 700 702 704 707 709 713 716 720 724
740 738 737 736 735 735 734 733 732 730 729 728 726 725 723 721 720 718 717 714 712 709 707 704 702 700 697 695 693 691 688 686 683 681 678 675 671 667 663 660 659 658 659 659 660 661 662 663 663 664 665 666 666 666 665 664 663 662 662 663 664 667 668 669 671 673 676 678 680 682 683 686 688 691 694 698 700 702 704 707 709 712 716 719 723 727
740 739 738 737 736 736 735 734 733 731 730 728 727 726 724 723 721 720 718 716 713 711 708 706 703 701 699 697 695 693 690 688 685 683 681 678 675 671 668 664 662 661 661 661 662 663 663 664 665 666 667 667 668 668 667 664 663 661 661 663 665 668 670 671 673 676 678 679 680 682 684 688 691 695 698 700 702 704 706 708 712 715 719 722 725 728
741 741 740 738 738 737 736 735 733 732 730 729 728 726 725 724 723 721 719 717 714 712 710 708 706 703 701 699 697 695 692 689 687 685 683 682 679 676 672 668 666 664 663 664 664 665 666 667 667 668 669 670 670 669 667 665 663 662 662 664 667 670 672 674 676 677 678 679 682 684 688 691 695 698 701 703 704 706 708 711 714 718 721 724 727 730
742 741 740 739 738 738 737 736 734 733 732 730 729 727 726 724 723 723 721 719 716 714 712 710 708 705 703 701 699 697 694 691 688 687 685 684 682 680 677 673 670 668 667 667 667 667 668 668 669 670 671 671 671 670 668 666 664 664 664 667 669 671 673 675 678 679 681 683 686 689 692 695 698 701 703 705 707 708 710 713 717 720 723 726 729 732
743 742 741 740 739 738 738 737 736 734 733 732 730 728 727 725 724 724 722 720 718 716 714 711 709 707 705 703 701 698 696 693 691 689 688 686 685 683 681 678 675 673 672 671 671 671 671 671 672 672 673 673 672 671 670 668 668 668 669 671 673 675 676 679 681 684 686 688 691 694 697 699 701 704 706 707 709 711 713 716 719 723 725 728 731 733
743 743 742 741 741 740 739 738 736 735 734 733 732 730 729 727 726 725 723 721 720 718 716 713 711 709 707 705 703 701 699 697 695 693 691 690 688 687 685 682 680 678 677 676 676 675 675 675 676 676 676 676 676 675 674 673 673 673 675 678 679 681 682 683 686 688 690 693 696 698 700 702 704 706 708 710 711 713 716 719 722 725 728 730 733 735
744 743 743 743 742 741 740 739 738 736 735 734 733 733 731 729 728 726 725 723 722 720 718 716 714 712 710 708 705 704 702 700 698 697 695 694 693 691 689 687 685 683 682 681 681 681 680 680 680 680 680 680 681 680 679 678 678 678 680 683 686 687 687 688 691 693 695 698 700 702 703 705 707 709 711 713 714 717 719 722 725 728 730 732 734 736
745 744 744 744 743 742 741 741 739 738 737 735 734 733 731 730 729 728 727 726 724 723 721 719 718 716 713 711 709 707 705 703 701 699 697 696 695 694 692 690 689 687 685 685 685 685 685 685 684 684 684 685 686 686 686 684 683 683 685 690 693 695 694 695 697 699 701 703 704 706 708 709 711 713 714 717 718 721 723 726 728 730 733 735 737 739
746 746 745 745 744 743 742 741 740 739 737 735 734 732 731 731 731 730 729 728 727 725 724 723 721 719 717 715 713 711 709 707 705 703 700 698 697 696 695 694 693 692 690 690 690 691 691 690 689 689 690 690 690 690 691 690 688 689 692 698 701 702 702 702 703 705 706 708 708 710 712 713 715 717 719 721 723 725 728 730 732 734 736 738 740 742
747 747 746 746 745 744 743 742 741 739 738 737 736 736 735 734 733 732 731 730 728 727 726 725 723 722 720 718 717 715 713 712 710 708 704 702 701 700 699 698 698 697 697 696 696 697 697 697 696 696 696 695 695 695 695 695 695 696 700 703 706 707 707 707 708 708 709 711 712 714 716 718 721 723 725 727 728 730 732 733 735 737 739 741 742 744
748 748 747 747 746 746 745 744 743 742 741 740 739 739 738 737 735 733 732 731 730 729 728 727 726 724 723 721 719 718 717 716 714 711 709 707 707 706 705 704 704 703 703 702 703 703 704 703 703 703 703 702 701 701 700 700 701 703 705 707 709 709 710 710 711 712 713 715 718 720 723 725 727 728 730 732 733 734 735 737 738 740 741 743 744 746
749 749 748 748 748 747 747 746 745 744 743 743 742 741 739 738 736 734 733 733 731 730 729 728 727 726 725 724 723 721 720 719 718 715 714 713 713 712 711 709 709 708 708 708 709 710 709 709 709 710 709 708 708 707 706 706 706 707 708 709 711 712 713 714 715 717 718 721 723 725 727 729 731 732 733 735 736 737 738 739 741 742 743 744 746 747
750 749 749 749 749 748 748 747 747 746 745 744 743 742 740 739 737 736 735 734 733 732 730 729 728 728 728 727 726 724 723 723 722 721 719 719 718 717 716 714 713 713 713 713 714 715 715 715 715 715 714 714 713 712 711 710 711 711 712 713 715 716 718 719 720 722 723 725 727 729 730 732 733 735 736 737 738 740 741 742 743 744 745 747 748 749
751 750 750 750 750 750 749 748 748 747 746 745 744 743 742 741 739 738 737 736 735 734 733 732 731 732 732 730 728 727 727 727 727 725 723 723 723 722 720 719 718 718 718 718 719 720 720 720 720 720 720 719 717 716 715 715 716 716 717 718 719 721 722 723 724 726 728 729 730 732 733 734 736 737 738 739 741 742 743 744 745 746 747 748 750 751
751 751 751 751 751 751 750 750 749 748 747 746 745 744 743 742 741 740 739 738 737 736 736 735 735 736 737 736 734 732 730 731 731 729 727 728 728 727 725 724 723 723 723 723 724 725 725 725 725 725 725 723 722 721 721 721 721 722 722 723 724 725 726 727 728 730 731 732 733 735 736 737 738 739 740 741 743 743 744 746 747 748 749 750 751 752
752 752 752 752 752 752 751 751 750 749 748 748 747 746 745 743 742 741 740 739 739 739 739 739 739 739 740 740 739 737 734 734 733 732 730 731 732 731 729 728 728 727 727 728 729 729 729 729 729 729 728 727 726 726 726 725 726 726 727 728 728 729 730 731 732 733 734 735 736 737 738 739 740 741 742 743 744 745 746 747 748 749 750 751 752 753
753 752 752 753 752 752 752 752 751 750 750 749 748 747 746 745 744 743 742 742 741 741 740 740 741 742 742 742 741 739 737 736 735 734 734 735 735 735 734 733 732 732 732 733 733 733 733 733 733 733 732 731 731 731 731 731 731 731 731 732 732 733 733 734 735 736 737 738 739 740 741 742 743 744 745 746 747 747 748 749 750 751 752 753 754 755
753 753 753 753 753 753 753 753 752 752 751 750 749 748 748 747 745 745 744 743 743 743 742 742 743 744 743 743 743 741 739 737 736 736 737 737 738 739 738 737 736 735 736 737 737 736 736 736 736 737 737 736 735 735 735 735 735 735 735 736 736 737 737 738 739 739 740 741 742 743 744 745 746 747 748 748 749 750 751 751 752 753 753 754 755 756
753 753 754 753 753 753 753 753 753 753 752 751 750 750 749 748 747 747 746 745 745 744 744 745 746 746 745 745 744 743 741 738 738 738 738 740 742 743 742 741 739 739 739 740 740 739 738 738 739 740 741 740 739 738 738 738 738 738 739 739 740 740 741 741 742 743 743 744 745 746 747 747 748 749 749 750 751 751 752 752 753 754 755 755 756 757
753 754 754 754 754 754 754 754 754 754 753 752 751 751 750 750 749 748 748 747 746 746 746 747 747 747 746 746 745 744 742 741 740 739 739 743 746 747 745 744 743 742 743 744 743 743 741 741 741 742 743 743 743 742 742 742 742 742 742 742 743 743 743 744 744 745 746 746 747 748 748 749 750 750 751 751 752 752 753 753 754 755 756 756 757 758
754 754 755 755 755 755 755 755 755 754 754 753 753 752 751 751 750 750 749 749 748 748 748 748 748 747 747 747 746 746 745 743 742 741 742 745 749 750 748 747 746 746 747 747 747 746 744 744 743 743 744 745 745 745 745 745 745 745 745 745 745 745 746 746 747 747 748 748 749 749 750 750 751 751 752 752 753 753 754 755 755 756 757 758 758 759
755 755 755 756 756 756 755 755 755 755 755 754 753 753 752 752 751 751 751 750 750 749 749 748 748 748 749 748 748 748 748 747 745 744 744 748 751 752 751 750 749 749 750 750 750 748 747 747 747 746 746 747 748 748 748 748 748 748 748 748 748 748 748 749 749 749 750 750 751 751 752 752 752 753 753 753 754 755 755 756 757 757 758 759 759 760
756 756 756 756 756 756 756 756 756 756 755 755 754 754 753 753 753 752 752 751 751 751 749 748 749 750 751 750 750 751 751 750 748 747 748 750 752 754 753 752 752 752 753 753 752 751 750 750 750 750 749 750 750 750 751 751 751 751 751 751 751 751 751 751 752 752 752 753 753 753 753 754 754 754 755 755 756 756 757 758 758 758 759 760 761 762
756 756 756 756 756 756 756 756 756 756 756 756 755 755 754 754 753 753 752 753 752 752 750 749 751 752 752 752 753 753 753 752 751 751 751 751 753 755 755 755 754 754 755 755 755 754 753 753 753 753 753 753 753 753 753 753 753 753 753 753 753 754 754 754 754 754 755 755 755 755 755 756 756 756 757 757 758 758 759 759 760 760 760 761 762 763
756 756 756 756 756 756 756 757 756 756 756 756 756 756 755 754 753 753 754 754 753 753 751 751 752 753 754 754 755 755 754 753 753 753 753 753 754 756 757 756 756 756 756 757 757 756 755 755 755 756 756 756 756 755 755 755 755 755 755 756 756 756 756 756 757 757 757 757 757 757 758 758 758 758 759 759 759 760 760 761 761 762 762 762 763 763
756 756 757 757 757 757 757 757 757 757 757 757 757 757 756 754 754 754 755 755 754 753 753 753 753 754 755 756 756 756 755 755 755 755 755 755 756 757 757 757 757 756 756 758 758 758 757 757 758 758 758 758 758 758 758 757 757 757 757 757 758 758 758 758 758 758 759 759 759 759 759 760 760 760 761 761 761 762 762 762 763 763 763 764 764 765
757 757 757 757 757 757 757 757 757 757 757 757 757 757 756 755 755 756 756 756 755 754 754 755 755 755 756 756 756 757 757 758 757 757 756 756 757 758 758 758 757 757 757 757 758 759 761 761 761 761 761 760 760 759 759 759 759 759 759 759 759 759 760 760 760 760 761 761 761 761 761 762 762 762 762 763 763 763 763 763 764 764 765 765 766 766
758 758 758 758 758 758 758 758 758 758 758 758 758 757 757 757 757 757 757 757 756 756 756 756 756 756 756 756 757 759 760 760 759 758 758 758 758 758 758 758 758 758 758 757 758 761 764 765 765 764 763 762 762 762 761 761 761 761 761 761 761 761 762 762 762 762 762 762 763 763 763 763 763 763 763 764 764 764 765 765 765 766 766 766 767 767
758 758 759 759 759 759 759 758 758 758 758 758 758 758 758 758 758 758 758 757 757 757 757 757 758 758 758 758 759 761 763 762 760 759 759 759 759 759 759 758 758 758 758 758 758 760 764 768 768 767 765 764 764 764 764 763 763 763 763 763 763 763 763 764 764 763 763 764 764 764 764 765 765 765 765 765 766 766 766 766 767 767 768 768 768 768
759 760 760 760 760 760 760 760 760 759 759 759 759 759 760 760 759 759 758 758 758 758 758 758 759 759 759 760 761 762 763 763 761 760 760 760 760 760 760 759 759 759 759 759 759 760 763 767 768 768 768 767 766 766 766 766 766 766 765 765 765 765 765 766 765 765 766 766 766 766 766 766 767 767 767 767 767 768 768 768 768 768 769 769 769 769
760 761 761 761 761 761 761 761 761 761 761 761 761 761 761 761 761 760 760 760 759 759 759 759 760 760 761 761 762 763 763 763 762 761 760 760 761 761 761 760 760 760 760 761 762 763 764 766 768 769 769 769 769 768 768 768 768 768 768 767 767 767 768 768 768 768 768 768 768 768 768 768 768 768 768 769 769 769 769 769 769 770 770 770 770 770
761 762 762 762 762 763 763 763 762 762 763 763 763 763 763 762 762 762 761 761 761 760 760 760 761 761 762 762 763 763 763 763 763 762 762 761 761 761 761 761 761 761 761 762 763 764 766 767 768 769 770 770 770 770 770 770 770 770 770 769 769 769 769 769 769 769 770 769 769 769 769 769 769 770 770 770 771 771 771 771 771 771 771 771 771 771
762 762 763 763 763 763 764 764 764 764 764 764 765 765 764 764 763 763 763 763 762 762 762 762 762 762 763 763 763 764 765 765 764 764 763 762 762 762 762 763 763 762 762 763 763 765 766 768 769 769 770 770 771 772 773 772 772 772 771 771 771 771 771 771 771 771 771 771 771 771 771 771 771 771 772 772 772 772 772 772 772 772 772 772 772 772
763 763 764 764 764 765 765 765 765 765 766 766 766 766 766 766 765 765 765 764 764 763 763 763 763 764 764 764 764 765 766 766 766 765 764 764 763 763 763 763 764 764 763 764 764 765 766 768 769 770 770 771 772 773 774 774 773 773 772 772 773 773 773 773 773 773 772 772 773 773 773 773 773 773 773 773 773 773 773 773 773 773 773 773 773 773
763 764 765 765 765 766 766 766 767 767 767 767 768 768 768 767 767 767 767 766 765 765 765 764 765 765 765 766 766 766 767 767 767 766 766 765 765 764 764 764 765 765 765 765 765 765 766 767 769 770 772 773 773 774 775 774 774 774 774 774 774 774 774 774 774 774 773 774 774 774 774 774 774 774 774 774 774 774 774 773 774 774 774 774 774 774
764 765 766 766 766 767 767 767 768 768 768 768 768 769 768 768 768 768 768 768 767 767 766 766 766 766 767 767 767 768 768 768 768 767 767 767 766 766 765 766 766 767 767 767 767 767 767 767 768 770 772 773 774 775 775 775 775 775 775 775 775 775 775 775 775 775 775 775 775 775 775 775 775 775 775 775 775 775 775 775 775 775 775 775 774 775
765 766 766 767 767 767 768 768 768 769 769 769 769 769 769 769 769 769 769 769 768 768 768 768 768 768 768 768 768 768 768 768 768 768 768 768 768 767 767 767 767 768 768 768 768 768 768 768 769 770 772 773 774 775 776 776 776 776 776 776 776 776 777 777 777 777 777 776 776 776 777 777 776 776 776 776 776 776 776 776 776 776 776 776 775 775
766 766 767 768 768 768 768 769 769 769 770 770 770 770 770 770 770 770 770 770 770 770 770 769 769 769 769 769 769 769 769 770 770 770 769 769 769 768 768 768 768 769 769 769 769 769 769 770 770 772 773 773 774 775 776 777 777 777 777 777 777 778 778 778 778 778 778 778 778 778 778 778 778 777 777 777 777 777 777 777 777 777 777 776 776 776
766 767 768 768 768 769 769 769 770 770 770 770 771 771 771 771 771 771 771 771 771 771 771 770 770 769 769 770 770 771 771 771 771 771 771 771 770 770 770 770 770 770 770 770 770 771 771 772 772 773 774 774 775 776 776 777 778 778 778 778 778 779 779 779 779 779 779 779 779 779 779 779 779 779 779 779 778 778 778 778 778 778 778 777 777 777
767 768 768 768 769 769 770 770 770 771 771 771 771 771 772 772 772 772 772 771 772 772 772 771 770 770 770 771 772 772 772 772 773 772 772 772 772 772 771 771 771 771 771 771 771 772 773 773 774 774 775 776 776 776 777 778 778 779 779 779 779 779 780 781 781 781 781 781 780 780 780 780 780 780 780 780 779 779 779 779 779 779 779 779 778 778
767 768 768 769 769 770 770 771 771 772 772 772 772 772 772 773 773 773 772 772 772 772 772 772 772 771 771 772 773 774 774 774 774 774 774 773 773 773 773 773 773 773 772 772 773 773 774 774 775 776 777 777 777 777 778 778 779 779 780 780 780 780 781 782 783 782 782 782 782 782 781 781 781 781 781 781 780 780 780 780 780 779 779 779 779 779
768 768 769 770 770 771 771 772 772 772 772 772 773 773 773 773 773 773 773 773 773 773 773 773 772 772 773 774 775 775 776 776 776 776 775 775 775 775 775 775 774 774 774 774 774 775 775 776 776 777 778 778 778 778 779 779 780 780 781 781 781 782 782 783 783 783 783 783 783 783 783 783 782 782 782 782 782 781 781 781 781 781 780 780 780 780
768 769 770 770 771 771 772 772 772 773 773 773 773 773 774 774 774 773 773 773 773 773 773 773 773 773 774 776 776 777 777 777 777 777 777 777 777 777 777 776 776 776 776 776 776 776 776 777 778 778 779 779 779 779 780 781 781 781 782 782 783 783 784 784 784 784 784 784 784 784 784 784 783 783 783 783 783 783 783 783 782 782 782 781 781 781
769 769 770 770 771 772 772 773 773 773 773 773 774 774 774 774 774 774 774 774 774 774 774 773 773 774 775 777 777 778 778 779 779 779 779 779 779 778 778 778 778 778 777 777 777 777 778 779 779 779 779 779 780 781 782 782 782 783 783 783 784 784 784 784 785 785 785 785 785 785 785 784 784 784 784 784 784 784 784 784 784 783 783 783 783 782
769 770 770 771 771 772 772 773 773 773 774 774 775 775 775 775 775 775 775 775 775 775 775 774 774 775 777 778 778 779 779 779 780 780 780 780 780 780 780 780 780 779 779 779 779 779 779 779 780 780 780 780 781 782 783 784 784 784 784 784 784 785 785 785 786 786 786 786 786 786 786 785 785 785 785 784 785 785 785 785 785 784 784 784 784 784
770 770 771 771 771 772 773 773 773 774 774 775 775 776 776 776 776 776 776 776 776 776 776 776 776 777 778 779 779 780 780 780 781 781 781 781 782 782 782 782 781 781 781 780 780 780 780 780 781 781 782 782 782 783 784 784 785 785 785 785 785 786 786 786 787 787 787 787 787 787 787 787 786 786 786 785 786 786 786 786 786 786 785 785 785 785
771 771 771 772 772 772 773 773 774 774 775 775 776 776 777 777 777 777 777 777 777 777 777 777 777 778 779 780 780 781 781 781 782 782 782 782 782 783 783 783 783 783 782 782 781 781 781 782 782 783 783 783 784 784 785 785 786 786 786 786 787 787 787 788 788 788 788 788 788 788 788 788 788 787 787 787 787 787 787 787 787 787 787 786 786 786
771 772 772 772 773 773 773 774 774 775 776 776 776 777 777 778 778 778 778 778 778 779 779 779 779 779 780 781 781 782 782 782 782 783 783 783 783 783 783 784 784 783 783 783 782 782 782 783 784 784 785 785 785 785 786 786 787 787 787 788 788 788 788 788 789 789 789 789 789 789 789 789 789 788 788 788 788 788 788 788 789 788 788 788 787 787
Wind_Speed
14 15 16 18 18 17 18 20 21 22 22 23 24 25 26 26 26 27 28 29 30 31 31 32 33 34 34 34 35 37 39 41 43 45 46 43 36 28 20 13 8 5 4 5 5 6 6 5 5 5 6 6 7 7 7 7 8 8 8 7 8 11 13 14 14 12 11 16 26 36 41 44 44 43 42 41 40 41 43 45 46 46 45 44 42 40
14 15 16 18 18 17 18 20 21 21 21 22 23 24 25 25 26 27 29 29 30 30 31 32 33 34 34 34 35 37 38 40 42 45 47 46 41 34 25 17 11 7 5 5 5 6 6 6 5 5 6 7 7 7 8 8 9 9 9 8 8 11 13 15 16 16 19 26 35 41 43 43 42 41 40 40 42 44 46 47 47 46 44 41 39 37
14 15 16 17 17 17 18 20 21 20 20 21 22 22 23 24 25 27 28 29 29 30 32 33 34 34 35 34 35 36 38 39 41 44 47 48 46 40 32 22 14 9 7 6 6 7 7 7 6 5 6 6 6 7 8 9 10 10 9 8 9 11 15 17 19 23 29 36 42 44 43 42 41 41 41 43 45 47 47 47 46 44 41 39 36 34
13 14 15 16 17 17 18 19 20 20 19 20 20 21 22 23 24 26 27 28 29 30 32 33 34 34 35 35 36 36 37 39 40 42 45 48 50 47 40 30 20 12 8 6 7 8 8 8 6 5 3 3 4 6 9 10 10 10 9 7 9 14 19 23 27 33 38 43 45 45 44 43 43 44 45 46 47 47 47 46 44 42 40 37 35 34
13 14 15 15 15 16 17 19 20 20 20 20 20 21 22 22 23 25 27 28 29 29 31 33 34 34 35 35 36 36 37 39 40 41 43 46 50 51 49 41 31 21 13 8 7 7 8 7 6 4 3 0 2 4 4 4 5 5 6 9 14 19 24 29 34 39 44 47 48 47 46 46 46 47 47 47 47 47 47 45 43 41 39 38 36 34
13 14 14 15 14 14 16 18 20 21 20 20 20 20 21 21 22 24 26 28 29 29 30 31 33 34 35 35 35 36 38 40 41 42 42 44 48 52 54 52 46 37 27 18 12 9 7 5 5 4 2 1 2 6 11 13 13 14 17 20 24 29 33 37 41 45 48 49 49 49 48 49 49 49 48 47 47 47 46 45 43 41 39 37 35 34
13 14 15 15 15 14 14 17 19 20 20 19 20 20 21 21 21 23 25 27 28 29 30 30 32 34 35 36 36 37 39 41 42 43 43 43 46 49 54 56 55 51 45 36 27 19 14 10 9 9 9 12 17 22 26 28 30 32 34 36 39 42 45 47 48 49 50 50 51 51 51 51 50 49 48 47 46 46 45 44 42 40 38 36 34 32
12 14 15 16 15 15 14 16 18 19 19 18 18 19 21 21 21 22 24 27 28 29 29 30 32 33 35 36 37 38 39 40 41 42 43 43 44 47 51 55 57 57 55 51 45 39 32 28 27 27 28 30 32 34 35 38 42 46 48 49 50 51 53 53 52 52 53 53 52 52 51 50 49 48 47 46 45 45 43 42 40 37 35 33 31 28
11 13 14 15 15 14 14 15 17 19 18 17 16 17 18 19 19 20 23 26 27 28 29 30 31 32 34 36 37 38 39 39 39 40 41 42 44 46 49 52 55 57 57 56 54 51 47 44 42 42 42 42 41 41 43 45 49 52 54 54 54 54 55 55 54 54 53 53 52 51 50 49 47 46 45 44 43 42 40 39 37 34 32 30 27 24
13 13 13 14 15 14 13 14 16 18 18 17 16 16 16 17 18 18 21 23 24 26 28 29 29 30 33 35 37 38 38 39 40 40 40 40 42 45 48 51 53 55 57 57 56 54 52 50 48 47 47 48 49 49 50 51 52 54 55 54 54 54 54 55 54 53 52 51 50 49 48 46 45 43 42 40 39 38 38 36 35 32 30 27 24 21
13 13 13 13 14 15 14 14 15 16 18 17 17 18 19 18 17 17 18 19 21 23 25 27 28 29 30 33 35 36 37 38 40 41 42 42 42 44 47 50 52 54 56 56 56 55 54 53 52 50 50 50 51 53 54 54 55 55 54 53 52 52 53 53 52 51 50 49 48 47 45 44 42 40 39 38 37 36 35 34 33 30 28 25 22 20
12 12 12 12 13 14 15 15 15 16 18 18 17 18 20 20 18 16 15 16 17 19 20 24 27 30 30 31 32 33 35 35 37 39 42 43 44 45 46 48 49 50 53 54 54 54 54 54 54 53 52 51 52 53 54 55 55 54 52 50 49 49 50 50 49 48 47 47 46 44 43 41 40 38 37 36 35 34 32 31 29 27 24 22 21 21
12 11 11 12 13 14 14 15 16 17 18 17 16 15 15 17 17 16 15 16 16 16 16 19 24 29 32 33 32 31 32 32 34 38 41 42 42 42 43 44 46 47 49 50 50 50 51 52 52 52 51 51 51 52 53 53 53 52 50 48 47 47 47 47 47 46 46 45 44 42 41 39 38 36 34 32 30 29 27 26 25 24 24 24 24 24
11 11 11 12 13 13 14 14 14 15 16 16 15 14 14 15 16 16 16 17 17 16 15 17 20 25 31 34 34 32 30 30 33 37 40 42 41 41 41 42 43 44 46 46 46 46 47 48 49 49 49 49 49 50 50 50 50 49 47 45 44 43 43 43 44 43 43 42 41 39 38 36 34 31 29 27 25 24 24 25 25 25 25 25 25 25
10 10 10 10 11 12 13 13 13 14 14 15 15 15 15 16 17 17 16 16 16 16 16 17 19 23 27 31 33 33 31 30 31 34 38 40 40 40 41 42 43 44 45 44 44 44 45 46 46 46 47 46 47 47 48 48 47 46 45 43 41 41 41 41 41 40 40 39 38 36 35 32 30 28 26 25 25 25 25 25 25 25 25 25 25 25
9 9 9 9 10 11 12 13 13 13 14 14 15 15 15 16 16 16 16 15 15 15 16 16 16 18 22 28 32 32 30 29 29 31 34 36 38 39 40 41 42 43 44 43 42 42 43 43 44 44 45 45 45 46 46 46 46 45 44 43 42 41 40 40 39 39 38 37 36 34 32 31 29 28 27 26 26 26 26 25 24 23 23 24 24 23
9 9 9 9 9 11 12 13 13 13 13 14 14 14 15 14 15 15 15 15 15 15 15 13 9 6 10 20 28 31 30 27 26 27 31 33 35 37 39 40 40 41 43 43 42 41 41 42 42 42 43 43 44 44 45 45 44 44 43 42 41 40 39 38 37 37 36 34 33 32 31 30 30 29 28 28 27 27 26 25 24 24 24 23 22 21
10 9 9 9 9 10 12 13 13 13 14 14 14 14 14 15 15 15 16 16 16 15 15 15 11 5 4 9 18 26 27 24 23 26 29 30 32 35 37 38 39 40 41 42 41 41 41 41 41 40 40 41 42 42 43 43 42 41 41 40 39 39 38 37 36 35 33 32 31 31 30 30 30 29 29 28 27 27 26 26 25 25 24 23 22 21
10 10 10 10 10 10 12 13 13 13 13 12 12 13 14 14 16 17 17 17 17 16 15 14 13 12 10 9 14 20 23 21 22 24 26 28 29 32 34 36 37 39 40 40 40 40 40 40 40 39 39 39 39 39 39 39 40 40 39 38 38 37 37 36 34 33 32 32 31 30 30 29 29 28 28 27 27 27 26 26 25 24 24 22 21 20
11 11 11 10 10 10 12 12 12 12 11 11 11 12 13 14 15 17 16 17 17 17 17 16 15 14 14 15 17 19 20 20 21 22 23 25 27 29 32 33 34 36 37 37 38 39 39 39 39 38 37 37 36 36 35 35 36 36 36 36 36 36 35 34 34 33 32 31 31 30 30 29 28 28 27 27 26 26 25 24 23 22 21 20 19 18
12 13 12 12 11 10 11 11 11 11 10 10 11 12 12 14 15 15 16 17 17 18 19 18 16 16 17 18 18 18 19 21 20 19 20 23 25 27 29 30 31 33 34 34 35 37 38 39 38 37 36 36 35 35 34 33 33 33 33 33 33 33 33 33 32 32 31 30 30 29 28 28 27 26 26 25 24 24 23 22 21 20 20 19 19 18
13 13 12 12 12 12 11 10 10 10 11 11 11 10 11 13 13 14 15 16 17 18 19 18 18 19 21 21 20 19 21 22 20 17 17 18 21 24 26 27 30 31 31 31 33 35 37 38 37 36 35 34 35 35 34 34 33 32 32 31 31 31 31 31 31 30 30 29 28 28 27 27 26 25 25 24 24 23 22 22 21 20 20 19 19 19
14 13 12 12 11 11 10 10 10 10 11 12 12 11 11 12 13 14 15 17 18 19 20 20 21 23 24 24 23 23 23 23 23 21 18 15 16 20 23 26 28 29 29 29 30 32 34 35 36 35 34 34 34 34 34 33 33 33 32 32 31 31 31 30 30 29 29 28 28 27 27 26 25 25 24 24 23 22 22 21 20 20 19 19 19 19
13 12 11 11 10 9 9 9 9 9 10 11 12 12 12 13 13 14 15 17 18 19 19 21 22 23 23 25 26 26 25 25 25 24 21 16 15 18 22 25 26 27 27 28 29 31 32 33 34 34 34 33 33 33 32 32 32 32 32 31 31 31 30 29 29 28 28 27 26 26 25 24 24 23 23 22 22 21 20 20 19 18 18 19 19 19
13 12 11 11 10 9 9 8 8 8 9 10 11 11 11 11 12 13 14 15 15 16 17 18 19 18 18 22 24 24 25 26 27 26 20 15 15 19 21 24 25 25 25 26 28 30 32 32 32 32 32 32 31 31 31 31 31 31 30 30 30 29 29 28 27 27 26 25 24 24 23 22 21 21 20 20 20 19 19 18 18 18 18 18 18 17
12 12 12 11 11 10 10 8 7 7 8 10 10 10 10 10 11 12 12 12 12 13 15 16 16 15 16 18 19 20 22 23 25 25 20 15 14 17 20 23 25 24 24 26 28 30 31 30 30 30 30 30 29 29 29 29 29 29 29 28 28 27 27 26 25 25 24 23 22 21 21 20 19 18 18 18 18 18 17 17 17 18 18 18 18 17
12 11 11 11 11 11 10 9 8 8 9 10 11 11 12 13 14 14 13 11 11 12 14 14 12 11 13 15 16 17 19 20 21 22 20 17 14 13 16 20 22 23 24 25 27 29 29 29 29 28 28 27 27 27 27 28 28 28 27 27 26 26 25 24 23 23 22 21 20 20 19 18 18 17 17 16 16 16 15 15 15 16 17 18 18 17
11 11 11 10 10 10 10 10 9 9 10 11 11 12 14 16 16 15 12 11 11 13 15 13 10 9 10 11 12 15 18 18 17 17 16 14 11 10 12 14 16 19 20 22 26 29 29 29 27 26 26 25 25 25 26 26 26 26 26 26 25 25 24 23 23 22 21 21 20 20 19 19 18 18 17 16 15 15 14 14 14 15 16 17 17 17
11 11 10 10 10 10 11 11 11 11 11 12 13 14 16 18 18 16 12 12 13 14 14 14 12 10 10 10 12 15 17 17 15 14 13 10 8 8 9 8 9 11 13 14 20 27 29 28 26 25 24 23 23 23 23 24 24 25 25 24 24 24 23 23 23 22 22 21 21 20 20 20 19 18 17 16 16 15 14 13 14 14 16 16 16 16
14 14 13 13 12 12 12 13 13 13 13 14 14 15 17 19 19 17 14 14 15 15 14 13 11 10 8 8 8 11 13 14 12 11 12 8 6 5 6 5 5 5 5 5 8 13 19 23 25 24 23 23 23 23 22 22 22 22 22 22 22 22 22 21 21 22 22 21 21 20 20 19 19 18 18 17 16 15 14 13 14 14 15 16 15 15
18 18 17 17 16 16 16 16 16 16 16 16 16 17 17 18 18 18 17 17 17 16 15 13 12 10 7 5 3 3 4 10 10 8 9 6 5 4 5 5 5 4 3 3 3 2 5 12 19 23 23 23 23 22 22 22 21 21 21 21 21 21 20 20 20 20 20 21 20 20 20 19 19 18 17 17 16 15 14 13 13 13 14 14 14 14
20 20 20 20 20 20 20 19 19 19 19 18 18 18 17 18 18 19 19 19 19 18 18 17 15 14 13 11 8 4 3 8 9 7 7 5 5 6 7 8 8 8 6 6 5 4 2 3 11 19 22 23 23 22 22 21 21 21 21 21 21 20 19 19 18 18 19 19 19 19 19 19 18 18 17 16 16 15 14 13 12 12 12 12 12 12
21 21 21 21 22 22 22 22 22 21 21 20 20 19 18 18 18 19 20 20 21 20 19 18 18 17 17 17 14 11 10 10 9 8 7 6 5 7 10 12 13 14 13 13 12 10 8 6 7 13 20 22 23 22 21 21 21 20 20 20 20 20 19 18 18 18 18 18 18 18 18 18 18 17 17 16 16 15 14 14 13 11 11 10 10 10
21 21 21 21 21 22 22 23 23 23 23 22 21 20 19 19 19 20 20 21 22 22 22 20 19 17 16 15 15 15 15 13 11 9 8 7 6 7 12 15 16 16 16 15 15 15 11 9 6 7 12 18 21 21 20 20 20 19 20 20 20 19 18 18 18 18 17 17 17 17 17 17 17 17 17 16 16 15 14 14 13 12 11 10 9 9
20 20 20 20 20 21 21 22 23 23 23 22 22 21 21 20 20 21 21 22 22 23 23 23 22 20 19 16 15 15 16 15 13 11 11 11 10 11 13 14 15 16 14 12 12 11 9 9 9 8 8 11 17 20 20 19 18 18 19 19 19 18 18 17 17 17 17 17 17 17 17 17 17 17 16 16 15 14 14 14 13 13 12 11 10 9
19 18 18 19 19 20 20 21 22 22 22 22 22 21 21 21 21 21 21 21 22 23 23 23 23 23 22 21 20 18 17 16 14 13 13 13 14 13 11 11 13 16 15 13 13 12 10 10 11 12 10 8 10 13 16 17 17 17 18 18 18 17 17 16 16 16 16 17 17 17 16 16 16 16 15 14 14 13 13 13 13 12 12 11 10 10
18 17 17 17 18 19 19 20 21 21 20 20 20 20 20 20 20 20 20 20 20 21 22 22 22 21 21 21 20 19 17 15 14 13 13 13 14 14 12 12 14 17 18 18 18 17 15 11 10 11 11 9 7 7 10 15 16 17 18 18 17 17 16 15 15 15 16 17 17 16 16 15 15 15 14 14 13 13 13 13 13 12 11 11 10 10
17 16 16 16 17 17 18 19 19 19 19 18 19 19 19 19 19 19 19 19 19 19 20 20 20 20 19 18 18 17 16 15 14 14 13 13 14 16 16 16 16 17 18 19 20 19 16 12 9 7 8 11 12 12 14 16 17 17 17 16 16 17 17 16 15 15 16 16 16 15 15 14 14 14 14 14 14 14 15 14 14 12 11 11 10 9
16 15 15 15 15 16 17 17 17 17 17 17 17 17 17 17 17 17 17 17 17 18 19 19 19 19 18 17 17 16 15 15 15 14 14 14 15 15 16 16 16 15 15 15 16 16 15 12 9 7 8 9 11 13 15 15 16 16 16 16 17 17 17 16 15 15 15 16 16 16 15 14 14 14 15 15 15 16 16 15 14 13 12 11 11 10
16 15 14 14 14 14 14 15 15 15 15 15 15 15 16 16 16 16 15 15 15 16 17 18 18 18 18 18 17 16 15 15 14 14 14 14 15 15 15 15 14 13 12 12 13 14 16 15 14 12 10 8 7 8 11 13 14 15 15 17 18 18 17 16 16 15 15 15 16 16 16 16 15 16 16 16 17 17 17 16 15 14 13 13 13 13
16 15 14 14 13 13 13 13 13 13 13 13 14 14 15 15 15 15 14 14 14 14 14 15 16 17 18 18 17 17 16 15 14 14 14 14 14 15 16 16 15 14 14 15 15 16 18 18 18 17 16 14 13 12 13 13 13 13 15 16 17 17 17 17 16 16 15 16 16 17 17 17 17 17 17 17 17 17 16 16 16 15 15 14 14 15
15 15 14 13 13 12 12 12 12 12 12 12 13 13 13 13 14 14 13 13 13 13 13 14 16 19 20 20 19 18 17 16 15 14 14 14 15 15 17 18 18 18 18 19 20 19 18 18 18 17 16 15 15 14 13 12 11 11 12 13 13 13 14 16 16 16 16 16 16 17 17 18 18 18 18 18 17 17 16 16 16 16 16 16 16 15
15 14 14 13 13 12 11 11 11 11 11 11 11 12 12 12 12 12 12 12 12 12 13 15 18 20 22 22 21 19 18 17 16 16 16 16 15 15 16 16 17 17 18 19 20 20 18 17 17 16 14 13 14 15 14 13 11 11 10 10 10 9 7 12 15 16 16 16 16 17 18 18 18 18 17 17 17 17 16 16 16 16 17 17 17 16
15 15 14 13 12 11 10 10 11 11 11 11 11 11 10 10 10 11 11 10 10 11 12 15 17 20 22 22 21 20 19 18 17 17 18 18 17 16 16 16 15 16 16 18 19 19 18 18 17 16 14 14 15 16 16 15 14 14 13 13 14 14 12 11 13 15 15 15 16 16 17 17 17 17 17 18 18 17 17 17 17 17 17 17 17 17
16 15 13 12 12 12 11 11 11 12 12 12 12 11 10 9 9 10 10 9 9 10 12 14 16 17 17 18 18 18 19 19 19 19 19 19 19 18 17 17 17 17 17 18 18 18 18 19 18 16 14 15 16 17 17 16 16 16 16 16 17 17 16 14 14 14 14 14 14 15 15 16 16 17 18 18 19 18 18 18 18 18 18 17 17 17
15 15 14 13 13 13 13 12 12 12 12 12 12 11 10 9 9 9 9 10 10 11 12 14 15 16 15 14 14 15 16 17 17 18 18 18 19 19 18 18 17 17 18 18 17 17 17 16 15 14 14 16 17 18 17 16 16 16 16 16 16 16 15 14 14 13 13 13 13 13 14 14 15 17 19 19 19 18 18 18 18 18 18 18 17 17
15 15 14 14 14 14 13 13 12 12 12 12 11 10 10 9 9 10 10 11 11 13 14 16 18 19 18 15 14 14 14 14 15 15 15 16 16 17 17 17 17 17 17 17 17 17 17 15 13 13 14 17 18 17 15 14 14 15 15 15 15 15 14 14 13 12 12 11 11 12 13 14 16 17 18 18 18 18 18 17 17 17 17 17 16 16
14 14 14 14 14 14 14 13 13 12 12 12 11 10 10 10 10 11 11 12 12 13 15 17 18 19 17 16 15 14 14 14 13 13 13 13 13 14 14 15 15 16 16 17 17 17 16 15 14 13 14 16 17 16 14 13 13 13 13 14 14 15 14 13 12 12 11 10 10 11 11 13 15 17 17 17 17 17 17 17 16 16 16 16 15 15
13 13 13 13 14 14 14 13 13 13 13 12 11 11 10 10 10 11 12 12 12 14 16 17 18 17 16 14 13 13 13 13 13 12 12 11 11 11 11 12 13 14 16 17 18 18 17 17 16 15 14 16 16 15 13 12 12 12 12 13 14 14 13 12 11 11 10 10 10 10 10 12 14 15 16 16 16 16 16 15 15 15 14 14 14 14
13 12 12 12 13 14 14 13 13 13 13 13 12 12 11 11 11 11 12 12 13 14 15 16 17 16 15 14 12 12 12 11 11 11 10 10 9 8 8 8 9 11 13 15 16 17 17 18 18 16 15 14 14 14 13 12 11 11 12 12 13 13 13 11 10 10 9 9 9 9 9 10 12 13 15 16 15 15 15 15 14 13 13 13 13 13
13 12 12 12 13 13 13 13 13 13 13 13 13 12 12 12 12 12 12 13 14 14 15 15 15 15 14 13 12 11 11 11 11 10 9 9 8 8 6 5 4 4 5 5 6 7 9 11 12 14 15 14 13 13 12 11 11 12 13 13 13 13 12 11 10 9 8 8 7 7 7 9 10 12 14 14 14 13 13 13 13 12 12 12 12 12
Wind_Direction
6 7 12 15 15 13 13 15 14 11 9 11 12 13 15 15 16 18 21 24 25 25 25 25 26 26 26 24 22 22 22 22 22 22 24 27 28 28 27 27 31 47 76 104 130 148 157 162 168 176 186 193 196 204 218 237 250 258 261 243 212 194 187 180 176 173 169 162 155 150 146 143 141 139 138 139 139 137 136 135 135 135 135 134 134 133
8 11 14 17 18 16 13 16 17 14 10 10 11 12 14 14 15 17 21 25 27 27 26 27 28 28 28 26 25 24 25 25 25 26 27 30 33 34 34 35 39 46 60 83 108 125 137 144 154 169 186 196 207 219 233 248 257 261 260 245 215 193 182 174 167 159 153 152 149 145 140 137 136 135 134 135 134 133 132 132 133 133 132 132 131 131
9 10 12 16 19 18 14 15 17 17 14 12 12 14 15 16 16 16 19 22 26 29 29 29 29 30 30 29 27 27 28 29 29 29 30 32 36 38 40 42 45 48 55 72 91 104 112 120 133 154 179 200 220 237 248 255 261 264 262 246 212 187 175 166 155 147 145 145 143 139 134 132 132 132 133 132 132 130 130 130 130 131 131 132 132 133
16 12 10 14 18 19 16 14 15 16 17 15 16 18 21 19 18 18 19 22 26 29 31 32 31 31 31 30 30 30 30 32 32 32 32 34 38 41 45 48 51 55 60 68 78 85 89 96 108 127 157 202 240 254 259 262 265 265 258 229 191 174 165 154 145 140 140 139 136 132 130 130 131 131 131 130 129 128 128 128 129 130 132 134 136 137
22 18 13 14 16 17 17 16 16 17 18 18 18 20 23 22 20 20 22 25 28 29 31 33 33 32 32 31 31 32 33 35 36 36 35 37 40 43 47 51 56 61 70 82 87 84 81 80 82 88 92 90 277 272 265 257 245 226 199 173 162 157 151 142 137 135 134 132 129 128 128 129 129 128 126 125 125 125 126 127 128 130 132 134 136 137
27 23 21 21 20 18 16 16 17 17 17 17 18 20 22 24 23 23 24 26 28 30 32 33 34 34 34 33 33 34 36 38 39 39 38 39 41 44 48 52 56 61 67 78 92 104 108 101 94 90 83 64 90 99 102 107 115 125 132 138 140 139 135 132 130 129 127 125 125 125 126 126 125 123 121 120 120 122 124 125 127 129 131 133 133 133
33 29 29 28 26 24 20 17 17 16 13 12 14 18 22 25 26 26 26 27 28 30 32 35 36 37 37 36 36 37 38 40 41 41 40 41 42 45 48 52 56 59 62 68 75 85 97 108 116 118 118 117 111 107 104 103 105 108 112 117 120 122 123 124 124 123 122 122 122 122 123 122 121 120 118 117 117 118 120 122 124 126 128 129 129 130
37 33 32 29 25 24 22 20 18 17 14 11 11 12 16 22 26 28 30 31 31 31 32 35 37 38 38 38 38 39 39 40 41 41 41 41 43 45 49 52 55 57 60 63 67 72 78 87 96 104 108 109 108 105 103 101 101 102 103 104 107 111 114 117 118 118 118 118 119 119 119 119 119 118 116 115 115 115 116 118 120 121 123 124 126 128
42 35 32 28 24 20 19 18 18 18 18 17 14 12 12 15 20 26 31 32 32 32 32 33 34 36 38 39 40 40 41 41 41 41 42 43 44 46 49 52 55 57 59 61 64 67 71 77 84 92 97 100 101 101 102 102 102 102 101 100 101 103 107 110 111 112 113 114 115 116 116 117 117 117 116 116 115 115 116 116 117 119 120 122 125 127
48 41 35 30 27 26 21 14 14 18 22 24 24 22 19 16 18 23 28 29 30 31 32 32 32 33 35 39 40 41 41 43 44 45 45 46 47 49 51 53 55 57 59 60 62 63 67 70 75 81 87 91 94 97 100 102 104 103 101 99 98 99 102 104 106 108 109 110 111 113 114 115 116 116 116 116 116 117 117 118 119 120 122 124 127 129
48 43 38 31 29 29 27 19 14 15 22 26 30 31 30 25 22 23 25 24 26 28 31 33 34 34 33 35 37 39 40 41 43 46 48 49 50 52 53 54 56 58 60 61 61 62 64 67 70 74 79 83 87 91 95 98 100 100 99 98 97 97 99 101 103 104 106 107 108 109 110 111 112 113 114 114 116 117 118 120 122 124 127 129 129 126
48 42 39 34 30 27 25 22 20 19 21 24 26 25 23 22 24 26 26 23 22 24 29 34 37 38 36 34 34 36 38 39 40 42 45 47 50 51 53 54 55 56 59 60 61 62 64 66 69 72 75 79 83 87 90 93 94 96 97 97 97 97 98 99 100 102 102 103 103 103 104 104 105 106 108 111 113 116 119 122 125 127 128 127 122 116
50 45 42 38 33 27 23 20 19 19 20 21 21 17 11 13 20 28 32 31 27 25 31 37 40 40 40 39 37 36 36 38 41 44 45 46 46 48 50 52 53 54 56 57 58 59 62 66 70 72 75 78 81 85 89 92 94 95 97 97 97 97 97 97 97 97 97 97 97 97 97 99 100 103 106 109 113 117 120 123 125 124 121 117 114 111
49 46 43 39 34 28 23 21 20 19 19 19 18 15 12 15 23 30 35 35 32 32 40 46 45 43 41 40 40 39 38 39 43 47 48 47 46 48 50 52 53 54 55 54 53 55 59 64 68 71 75 78 80 83 86 91 94 97 97 97 95 94 94 93 93 93 93 94 96 97 99 101 103 105 107 109 112 114 116 117 116 115 113 112 111 112
48 45 44 41 35 28 23 21 22 21 18 17 17 19 23 27 30 34 36 33 31 34 42 50 51 47 42 39 39 40 40 42 45 48 48 47 48 50 53 54 54 55 55 53 52 53 57 61 65 69 74 78 80 82 85 88 92 95 97 96 96 95 95 94 95 96 98 101 103 105 107 108 109 109 109 109 110 110 110 110 110 109 108 109 110 112
51 48 46 43 37 30 24 24 23 21 19 20 21 25 28 28 31 35 37 35 35 37 41 45 49 47 41 39 40 41 41 42 46 50 50 47 47 51 55 56 56 55 55 53 52 52 55 58 62 67 72 78 82 85 86 87 90 93 96 98 99 100 100 101 103 105 107 109 112 113 114 114 113 113 112 111 111 111 111 109 108 106 105 106 109 112
53 50 49 46 39 32 27 28 28 26 25 24 27 30 33 32 35 38 41 42 43 42 41 41 42 38 33 32 36 40 42 43 47 52 53 48 47 50 55 57 57 56 56 54 53 53 54 56 60 64 69 76 82 85 87 88 90 93 95 98 101 104 106 108 109 111 112 114 115 115 115 115 114 114 114 114 114 113 112 110 108 107 108 111 114 117
56 51 49 46 41 34 31 31 31 30 30 29 30 34 39 41 44 46 48 50 50 48 46 46 45 43 34 18 23 31 43 45 49 54 55 50 48 50 55 58 59 58 57 56 55 55 55 56 59 63 68 74 80 84 86 89 91 93 95 97 100 104 107 109 110 112 113 113 114 114 114 114 114 115 115 115 115 114 114 114 114 116 119 122 124 125
58 52 48 45 43 40 37 35 33 31 32 32 34 37 41 45 49 52 53 53 54 55 55 53 49 46 43 22 18 29 43 49 55 58 57 52 47 49 54 58 60 60 59 57 56 57 57 57 59 63 68 73 78 81 84 87 89 92 94 96 98 101 104 107 109 110 112 113 114 115 115 116 117 117 118 118 118 119 120 121 122 124 126 127 128 128
62 51 45 45 47 45 41 39 38 39 40 43 46 47 46 50 52 54 55 57 59 60 62 59 53 46 42 33 30 35 48 56 61 62 60 54 48 47 52 57 59 60 59 57 58 59 60 59 60 62 66 71 76 79 82 84 86 88 90 92 94 97 100 102 105 107 109 111 113 115 117 118 119 119 120 121 121 122 122 122 123 123 124 124 123 123
64 54 52 54 54 51 45 46 50 55 60 62 60 57 55 56 56 57 59 62 63 63 63 61 55 50 48 43 39 42 53 60 64 65 64 57 49 47 50 55 59 60 58 57 59 62 63 63 62 61 64 69 74 78 82 84 86 87 89 90 92 94 96 98 100 102 104 106 108 110 111 113 114 114 114 114 114 113 112 111 110 110 110 110 109 109
67 62 61 63 63 61 59 60 62 67 72 74 69 62 61 62 62 62 64 67 68 68 68 66 63 60 58 55 52 53 60 65 68 70 70 59 47 43 49 55 59 60 58 57 59 63 66 66 65 63 63 66 70 75 79 83 85 88 90 91 92 94 94 95 96 98 99 100 101 102 103 104 104 104 104 103 103 101 100 100 99 99 100 101 102 103
77 73 71 70 70 71 72 72 72 73 76 78 78 76 74 74 73 73 73 74 75 76 76 75 72 68 66 63 62 62 65 69 73 76 75 66 48 42 50 57 60 60 57 57 59 63 67 68 68 66 64 64 67 71 75 78 82 84 87 90 91 93 94 95 95 96 97 97 98 98 99 99 99 99 99 98 98 97 96 96 97 99 100 103 105 107
85 81 77 75 76 78 80 79 80 81 82 83 83 83 84 82 80 80 79 79 80 81 80 78 74 69 65 63 61 61 62 67 73 77 78 72 57 49 52 59 61 59 58 59 62 66 69 70 71 71 69 66 66 69 72 75 78 81 83 86 88 89 91 92 92 93 94 94 94 95 96 96 97 97 97 97 97 96 96 96 97 99 103 106 110 113
88 84 81 79 78 77 79 81 86 91 95 95 94 92 90 88 87 87 85 84 84 84 83 78 71 64 60 59 57 55 57 65 71 76 79 77 64 57 57 62 63 62 59 61 66 69 71 71 73 74 74 71 69 69 70 72 75 77 79 82 84 85 87 88 88 89 89 90 90 91 92 92 94 95 96 97 98 98 99 99 100 102 105 107 110 113
90 88 85 82 79 78 77 80 88 99 107 107 105 104 104 105 105 100 93 88 86 86 83 77 71 65 61 59 55 51 54 61 68 73 79 82 73 62 61 65 67 66 62 62 65 68 70 70 71 74 75 75 75 73 73 74 75 75 77 78 80 82 83 84 85 86 86 87 87 88 88 90 91 93 95 97 99 100 101 102 104 107 110 111 110 108
92 91 89 88 87 85 85 85 90 101 110 114 115 117 119 119 110 97 82 79 83 86 85 81 77 70 64 59 54 50 53 58 63 69 77 82 78 67 64 68 71 70 66 62 63 65 67 66 68 71 74 77 80 81 81 80 79 78 78 79 79 79 80 81 82 83 84 84 85 86 86 87 89 90 92 94 96 98 99 101 104 108 112 113 112 109
100 101 102 102 101 99 97 94 94 99 108 115 120 123 122 114 99 83 73 77 84 87 85 86 86 81 73 66 58 54 55 55 57 62 71 79 77 67 67 70 75 77 74 66 62 63 65 64 66 69 72 76 80 83 85 85 85 84 83 82 81 81 80 80 80 80 81 81 82 83 84 85 85 86 88 89 91 93 94 97 102 107 112 114 113 111
101 104 106 108 108 107 106 102 99 99 104 111 116 116 112 103 91 82 82 90 92 90 86 86 88 91 91 82 68 58 53 50 52 59 66 76 77 70 70 65 72 81 84 76 64 59 60 59 62 66 70 74 77 80 82 85 86 87 86 85 85 84 83 82 81 80 79 79 80 80 81 82 82 83 83 83 84 85 88 93 99 105 110 112 112 111
96 98 99 99 101 103 104 103 101 100 102 104 105 103 100 98 95 93 95 94 93 90 87 85 86 91 96 89 70 53 42 38 44 57 64 66 66 66 64 55 56 68 83 91 69 55 50 53 57 63 69 73 75 77 78 80 82 83 84 85 85 84 84 84 83 83 81 80 79 79 80 80 80 80 79 78 78 78 81 86 94 103 110 112 112 111
92 92 91 93 94 96 97 97 97 97 97 97 96 95 95 97 98 98 96 90 88 87 86 82 78 75 76 76 67 44 23 21 30 50 58 54 51 57 62 63 60 55 54 83 106 90 46 46 52 60 69 72 74 75 76 77 78 79 80 81 81 81 81 81 82 83 83 82 81 80 79 78 77 77 77 76 75 75 76 80 88 99 108 113 113 110
91 89 89 90 90 91 91 91 91 91 91 91 91 91 92 94 96 96 93 91 88 87 84 82 78 74 72 74 78 76 35 19 26 44 58 64 64 67 77 82 80 75 73 79 94 112 113 78 55 57 65 68 71 73 74 76 77 78 79 79 79 78 77 77 77 78 79 81 82 81 80 78 77 76 76 76 75 75 75 77 83 93 104 112 113 111
93 91 89 88 87 86 85 85 85 85 86 86 87 88 90 91 92 93 93 93 93 91 87 84 82 79 77 76 74 67 51 38 37 50 70 84 83 80 86 91 89 86 85 85 89 97 105 118 83 62 63 65 67 69 71 73 75 76 77 78 79 78 76 75 74 74 75 77 79 81 82 81 80 78 77 76 76 76 76 77 80 86 96 106 111 112
96 92 89 86 84 82 82 81 81 80 81 82 83 85 86 88 89 90 91 91 91 91 90 88 86 83 80 76 70 61 52 49 52 63 80 93 98 95 93 94 95 95 93 90 90 94 99 105 102 82 68 65 66 68 68 70 72 74 75 77 77 78 77 76 75 75 75 75 77 79 81 82 82 82 81 79 78 78 79 79 80 82 87 96 103 109
99 93 89 86 83 81 80 79 78 78 77 77 78 80 82 84 86 87 88 88 88 88 88 87 86 85 82 79 71 60 53 54 58 69 84 99 108 105 95 93 98 104 104 101 97 95 92 92 96 99 91 73 67 67 67 69 72 74 75 75 76 76 76 77 78 78 78 77 77 77 78 80 81 82 82 82 82 82 83 83 83 83 84 88 94 99
98 92 89 87 85 83 81 80 80 79 78 77 76 76 77 79 81 83 85 87 88 88 87 85 84 82 81 78 74 67 61 60 62 71 85 98 107 107 98 96 104 111 113 112 110 107 102 94 91 92 92 83 71 67 67 71 75 76 76 75 74 74 75 76 77 79 79 77 76 75 76 76 78 79 80 81 82 82 83 82 82 83 84 86 88 90
97 92 89 88 87 86 84 83 82 81 80 79 78 77 76 76 77 79 81 85 87 89 89 87 85 82 80 78 76 74 71 67 67 72 83 95 101 104 105 107 111 113 113 113 113 111 108 103 93 83 76 73 71 68 67 73 75 75 74 74 74 74 73 73 75 76 78 78 77 76 76 77 78 79 80 79 79 78 77 76 75 77 79 82 84 85
99 94 91 90 90 89 88 86 84 83 82 81 80 79 78 77 76 76 78 81 85 89 91 91 90 89 86 83 81 79 77 73 72 75 83 92 99 104 109 112 112 112 113 114 114 113 111 109 99 84 74 75 80 82 80 77 75 74 74 75 76 74 73 72 72 74 77 79 80 80 80 81 82 83 82 81 78 76 73 71 69 69 71 75 78 80
101 98 96 94 94 94 92 90 89 87 86 85 84 83 82 80 78 76 76 78 82 86 89 92 93 93 92 90 87 83 80 78 78 79 84 90 96 102 108 111 113 113 114 115 116 115 112 108 104 102 100 92 87 85 85 82 80 79 80 80 78 75 74 72 73 75 78 81 82 83 83 84 84 84 82 80 77 75 74 72 70 69 71 74 78 80
106 104 102 102 100 98 97 96 96 94 93 93 93 91 88 85 82 80 78 78 79 82 86 89 91 91 91 88 85 82 79 79 80 82 85 89 93 97 100 103 108 113 118 119 117 115 111 106 104 105 107 106 100 92 89 87 85 84 83 79 73 70 73 74 75 76 78 80 81 82 81 81 80 80 78 77 75 74 73 72 71 70 70 72 75 77
112 110 109 109 108 106 105 105 105 105 105 102 98 94 89 86 84 82 82 82 82 84 88 91 92 91 88 85 81 78 75 76 77 80 84 89 94 97 97 96 99 105 111 112 110 107 106 105 103 103 104 106 106 102 96 91 88 85 82 79 76 74 75 75 76 76 77 78 79 79 79 79 78 77 77 76 75 74 73 72 71 69 68 67 67 68
116 116 116 116 115 115 116 116 116 115 112 107 101 95 91 88 85 84 84 84 85 87 92 95 93 88 83 79 77 75 73 74 76 80 83 86 90 95 97 97 98 100 103 103 101 99 99 100 101 101 103 106 106 103 97 94 90 86 84 84 84 82 78 74 75 76 76 76 77 78 78 78 78 78 78 78 77 75 74 74 73 71 69 67 66 64
120 121 123 123 124 125 126 124 120 116 111 104 98 94 91 88 87 85 83 82 85 89 92 92 90 86 80 75 73 73 74 75 77 81 83 84 85 89 93 97 100 101 101 98 95 94 95 95 95 97 100 104 105 102 98 94 92 89 86 86 86 83 74 72 74 77 77 77 78 79 80 80 79 79 78 77 77 75 74 74 74 74 72 70 68 66
125 126 127 129 132 133 131 125 119 113 106 100 95 92 89 86 84 83 82 83 87 94 96 95 91 87 80 75 72 72 74 77 79 81 82 82 82 83 86 91 95 97 98 95 94 95 95 93 92 93 95 96 97 96 95 93 90 88 88 89 89 88 86 83 81 80 80 80 81 82 83 83 82 80 78 76 75 74 72 72 72 72 71 71 70 67
126 127 128 132 135 134 130 125 119 113 107 102 99 96 93 89 87 85 83 84 92 100 103 101 95 86 77 74 73 73 74 76 78 79 80 80 80 79 80 82 85 88 91 92 94 96 95 94 94 95 96 93 89 86 87 90 92 91 91 93 93 91 91 89 86 83 83 83 83 84 84 83 83 81 78 75 73 72 71 69 68 68 68 68 67 65
126 128 130 133 134 133 131 128 124 119 114 108 104 101 99 97 95 92 88 90 94 99 104 105 98 89 81 78 76 74 73 72 72 73 75 76 76 77 76 76 79 82 86 89 91 92 93 95 99 102 104 96 85 79 79 86 91 94 95 96 96 95 94 90 87 84 82 82 83 84 85 84 83 81 79 76 73 71 70 68 67 66 65 65 64 62
129 130 133 136 136 135 134 134 132 127 120 113 108 105 103 101 98 93 91 92 95 98 101 102 98 91 86 82 80 77 74 72 71 70 69 70 71 72 74 75 76 78 82 86 89 91 92 94 99 104 104 94 85 78 76 79 85 92 96 98 97 95 91 89 86 84 81 80 81 82 84 85 85 85 83 81 77 72 69 66 64 63 63 63 62 60
131 133 136 139 139 139 139 140 137 130 120 113 108 104 101 100 96 92 89 90 94 97 97 96 93 89 86 84 83 82 81 78 76 74 72 70 68 68 72 75 78 80 83 85 88 90 92 94 94 95 95 92 87 82 80 79 82 88 93 96 95 92 89 87 86 86 83 82 81 82 84 86 86 86 85 82 78 73 69 63 59 58 59 59 59 58
131 132 136 138 137 136 137 139 137 129 119 114 110 106 102 102 99 95 93 92 93 93 92 92 90 87 83 81 83 85 86 84 82 80 77 74 72 73 75 78 82 85 87 87 88 87 87 86 85 85 87 89 88 85 84 84 86 90 93 94 93 91 89 88 87 86 85 84 83 83 84 85 86 87 86 83 80 76 71 64 57 53 52 54 56 56
131 131 132 131 129 129 132 135 134 127 120 115 112 110 107 105 101 98 96 95 94 92 90 90 90 87 83 82 83 85 86 87 85 81 77 73 73 75 78 84 89 92 90 88 86 84 81 77 75 75 79 86 88 87 86 89 94 98 97 93 91 90 90 88 88 86 85 86 86 85 86 85 85 85 86 85 83 79 74 67 58 50 47 48 53 55
135 132 129 125 123 123 126 128 128 124 120 117 114 112 109 106 103 100 98 96 94 92 90 90 89 87 85 84 85 86 89 89 85 79 75 71 69 68 68 74 90 103 101 95 90 84 79 75 69 65 67 75 85 90 88 92 99 103 100 94 90 90 90 90 89 88 86 85 86 87 87 85 84 85 86 86 83 78 73 68 59 49 44 45 51 55